Regional Weather Roundup
Issued by NWS

Home | Current Version | Previous Version | Text Only | Print | Product List | Glossary Off
Versions: 1 2 3 4 5 6 7 8 9 10 11 12 13 14 15 16 17 18 19 20 21 22 23 24 25 26 27 28 29 30 31 32 33 34 35 36 37 38 39 40 41 42 43 44 45 46 47 48 49 50

000
ASUS44 KMEG 261910
RWRTN
TENNESSEE HOURLY STATE WEATHER ROUNDUP
NATIONAL WEATHER SERVICE MEMPHIS TN
200 PM CDT THU MAR 26 2015

TNZ002-004-019-021-049-052-054-088>092-262000-
WEST TENNESSEE

CITY           SKY/WX    TMP DP  RH WIND       PRES   REMARKS
MEMPHIS INTL   CLOUDY    49  44  83 N23G31    29.98S
NWS MEMPHIS      N/A     47 N/A N/A MISG        N/A
JACKSON        CLOUDY    48  45  89 N17G26    29.97R FOG
DYERSBURG      CLOUDY    45  32  61 N14G23    30.04R
UNION CITY     CLOUDY    41  41 100 N17       30.02R
PARIS          CLOUDY    43  41  93 N13       29.99R
LEXINGTON      CLOUDY    48  45  87 N9        29.92R
SAVANNAH       CLOUDY    55  52  88 N15       29.89S
$$

TNZ008-025-027-028-033-062-065-066-262000-
NORTH MIDDLE TENNESSEE

CITY           SKY/WX    TMP DP  RH WIND       PRES   REMARKS
NASHVILLE      CLOUDY    51  47  86 N14       29.88F FOG
CLARKSVILLE    LGT RAIN  45  44  97 N14       29.96R FOG
SMYRNA         CLOUDY    53  48  83 N16       29.88S
COOKEVILLE     PTSUNNY   66  57  72 NW12      29.78F
CROSSVILLE     PTSUNNY   70  50  49 SW9       29.79F
$$

TNZ061-075-076-078-094-096-097-262000-
SOUTH MIDDLE TENNESSEE

CITY           SKY/WX    TMP DP  RH WIND       PRES   REMARKS
FAYETTEVILLE   MOSUNNY   70  54  56 SW14      29.81F
TULLAHOMA      PTSUNNY   72  55  56 SW12      29.81F
WINCHESTER     MOSUNNY   73  55  53 W12       29.80F
MCMINNVILLE    MOSUNNY   72  57  60 W14       29.79F
COLUMBIA       CLOUDY    55  55 100 NW10      29.86R
SHELBYVILLE    CLOUDY    72  57  60 W12       29.81F
$$

TNZ017-018-042-046-047-262000-
NORTHEAST TENNESSEE

CITY           SKY/WX    TMP DP  RH WIND       PRES   REMARKS
TRI CITIES     PTSUNNY   71  52  50 W20G35    29.79F
ELIZABETHTON   PTCLDY    72  52  49 W8        29.79F
$$

TNZ012-013-036-069-073-074-262000-
CENTRAL EAST TENNESSEE

CITY           SKY/WX    TMP DP  RH WIND       PRES   REMARKS
KNOXVILLE      CLOUDY    74  54  49 SW21G28   29.77F
OAK RIDGE      PTSUNNY   76  54  46 S12G23    29.76F
GATLINBURG     PTCLDY    73  50  43 SW12      29.77F
MORRISTOWN     PTCLDY    73  54  49 SW18      29.78F
$$

TNZ083-085-099-262000-
SOUTHEAST TENNESSEE

CITY           SKY/WX    TMP DP  RH WIND       PRES   REMARKS
CHATTANOOGA    PTSUNNY   75  50  41 S10G22    29.78F
$$

SKY/WX REPORTED AS FAIR MEANS FEW OR NO CLOUDS BELOW
12 THOUSAND FEET.



USA.gov is the U.S. government's official web portal to all federal, state and local government web resources and services.